Hourly Data Report for September 26, 2017

All times are specified in Local Standard Time (LST). Add 1 hour to adjust for Daylight Saving Time where and when it is observed.

SAINT JOHN A
NEW BRUNSWICK

45°18'58.000" N
65°53'24.000" W
108.80 m
8104901
71609
YSJ

Download Data

Hourly Data (September 2017)
Hourly Data Report for September 26, 2017
Temp Definition
°C
Dew Point Temp Definition
°C
Rel Hum Definition
%
Wind Dir Definition
10's deg

Wind Spd Definition
km/h
Visibility Definition
km
Stn Press Definition
kPa
Hmdx Definition


Wind Chill Definition


Weather Definition


TIME
00:00 Legend Double Dagger 15.9 15.8 99 19 10 0.8 100.38     Fog
01:00 Legend Double Dagger 14.6 14.4 99 21 10 1.2 100.33     Fog
02:00 Legend Double Dagger 13.5 13.4 99 20 14 0.8 100.32     Fog
03:00 Legend Double Dagger 13.5 13.4 99 20 12 0.8 100.33     Fog
04:00 Legend Double Dagger 14.0 13.9 99 20 10 1.6 100.35     Fog
05:00 Legend Double Dagger 14.6 14.2 98 20 9 24.1 100.33     Mainly Clear
06:00 Legend Double Dagger 14.1 13.7 97 20 9 24.1 100.28     LegendNANA
07:00 Legend Double Dagger 14.6 14.1 97 19 10 24.1 100.30     LegendNANA
08:00 Legend Double Dagger 16.5 15.2 92 21 16 24.1 100.29     Mostly Cloudy
09:00 Legend Double Dagger 18.8 15.8 82 20 19 24.1 100.28     LegendNANA
10:00 Legend Double Dagger 19.0 15.4 79 21 14 24.1 100.29     LegendNANA
11:00 Legend Double Dagger 21.4 16.9 75 21 18 24.1 100.27 27   Mostly Cloudy
12:00 Legend Double Dagger 23.1 17.5 70 21 14 24.1 100.21 29   LegendNANA
13:00 Legend Double Dagger 23.2 16.6 66 19 18 24.1 100.16 28   LegendNANA
14:00 Legend Double Dagger 22.4 16.2 67 20 20 24.1 100.16 27   Mainly Clear
15:00 Legend Double Dagger 24.7 17.5 64 19 22 24.1 100.12 30   LegendNANA
16:00 Legend Double Dagger 20.3 16.2 77 20 15 24.1 100.14 25   LegendNANA
17:00 Legend Double Dagger 18.9 15.8 82 21 15 24.1 100.16     Mainly Clear
18:00 Legend Double Dagger 16.5 15.2 92 19 11 24.1 100.16     LegendNANA
19:00 Legend Double Dagger 16.3 15.2 93 20 7 24.1 100.16     LegendNANA
20:00 Legend Double Dagger 15.5 15.0 97 18 8 24.1 100.20     Cloudy
21:00 Legend Double Dagger 16.3 15.4 95 11 10 24.1 100.27     LegendNANA
22:00 Legend Double Dagger 17.1 16.0 93 17 7 24.1 100.26     LegendNANA
23:00 Legend Double Dagger 15.8 14.8 93 8 12 24.1 100.29     Mostly Cloudy

Notes on Data Quality.

Legend

  • E = Estimated
  • M = Missing
  • NA = Not Available
  • ‡ = Partner data that is not subject to review by the National Climate Archives
Date modified: